Date String (YYYY-MM-DD hh:mm:ss) UTC,Instrument flags,absolute air pressure of the measurement (hPa),sample flow rate (lpm),inlet stack bypass flow (lpm),air temperature of the measurement (°C),ambient temperature measured by the external sensor (°C),aerosol sample conditioner tube jacket temperature (°C),OPC LED temperature (°C),internal box temperature (°C),relative humidity of the measurement (%),span deviation,mass concentration of particles derived from Lorenz-Mie calculation of OPC scattering (μg/m³),mass concentration of particles derived from Lorenz-Mie calculation of OPC scattering (μg/m³),mass concentration of particles derived from Lorenz-Mie calculation of OPC scattering (μg/m³)
DateTimeUTC,F1_M11,P_M11,Q1_M11,Q2_M11,T1_M11,T2_M11,T3_M11,T4_M11,T5_M11,U1_M11,ZSPAN_M11,X2_M11,X0_M11,X1_M11
2023-08-10 07:00:00,SystemResetWarning,0829.1,4.99,000.00,029.4,027.9,000.0,038.0,031.0,23.5,-001.5,0005.86,0012.74,0005.15
2023-08-10 07:01:00,SystemResetWarning,0829.1,5.00,000.00,029.4,028.0,000.0,038.0,031.1,23.4,-001.7,0005.85,0012.34,0005.16
2023-08-10 07:02:00,SystemResetWarning,0829.1,5.01,000.00,029.4,028.0,000.0,038.0,031.1,23.3,-001.5,0005.87,0012.57,0005.17
2023-08-10 07:03:00,SystemResetWarning,0829.1,5.00,000.00,029.4,028.1,000.0,038.0,031.1,23.3,0000.0,0005.91,0012.74,0005.17
2023-08-10 07:04:00,SystemResetWarning,0829.1,5.00,000.00,029.5,028.2,000.0,038.0,031.1,23.3,-000.4,0005.94,0011.35,0005.16
2023-08-10 07:05:00,SystemResetWarning,0829.1,5.00,000.00,029.5,028.2,000.0,038.1,031.1,23.2,-000.6,0005.93,0010.69,0005.16
2023-08-10 07:06:00,SystemResetWarning,0829.1,5.00,000.00,029.5,028.2,000.0,038.1,031.2,23.2,-000.2,0005.94,0010.26,0005.17
2023-08-10 07:07:00,SystemResetWarning,0829.1,5.00,000.00,029.5,028.3,000.0,038.1,031.2,23.2,0000.0,0005.98,0010.47,0005.16
2023-08-10 07:08:00,SystemResetWarning,0829.0,5.00,000.00,029.6,028.3,000.0,038.1,031.2,23.2,0000.0,0005.97,0010.47,0005.17
2023-08-10 07:09:00,SystemResetWarning,0829.0,5.00,000.00,029.6,028.3,000.0,038.1,031.2,23.2,0000.0,0005.98,0010.52,0005.18
2023-08-10 07:10:00,SystemResetWarning,0829.0,4.99,000.00,029.6,028.4,000.0,038.1,031.2,23.0,0000.0,0005.96,0011.55,0005.19
2023-08-10 07:11:00,SystemResetWarning,0829.0,5.00,000.00,029.6,028.4,000.0,038.2,031.3,23.1,0000.0,0005.94,0012.22,0005.19
2023-08-10 07:12:00,SystemResetWarning,0829.0,5.00,000.00,029.6,028.4,000.0,038.2,031.3,23.1,0000.0,0005.95,0012.52,0005.19
2023-08-10 07:13:00,SystemResetWarning,0828.9,5.00,000.00,029.7,028.5,000.0,038.2,031.3,23.1,0000.0,0005.91,0012.45,0005.18
2023-08-10 07:14:00,SystemResetWarning,0828.9,5.00,000.00,029.7,028.5,000.0,038.2,031.3,23.0,0000.0,0005.91,0012.30,0005.18
2023-08-10 07:15:00,SystemResetWarning,0828.9,5.00,000.00,029.7,028.5,000.0,038.2,031.4,22.9,0000.0,0005.87,0012.52,0005.18
2023-08-10 07:16:00,SystemResetWarning,0828.9,5.00,000.00,029.7,028.5,000.0,038.3,031.4,22.9,0000.0,0005.87,0012.67,0005.19
2023-08-10 07:17:00,SystemResetWarning,0829.0,4.98,000.00,029.7,027.3,000.0,038.2,031.3,22.8,0000.0,0005.86,0012.79,0005.20
2023-08-10 07:18:00,SystemResetWarning,0828.9,5.01,000.00,029.7,025.5,000.0,038.1,031.0,22.8,0000.0,0005.85,0012.89,0005.20
2023-08-10 07:19:00,SystemResetWarning,0829.0,5.00,000.00,029.6,025.1,000.0,038.0,030.8,22.9,0000.0,0005.86,0013.06,0005.21
2023-08-10 07:20:00,SystemResetWarning,0829.0,5.01,000.00,029.4,025.4,000.0,038.0,030.5,23.0,0000.0,0005.84,0013.24,0005.20
2023-08-10 07:21:00,SystemResetWarning,0829.0,5.01,000.00,029.4,025.8,000.0,038.0,030.6,23.1,0000.0,0005.86,0012.53,0005.20
2023-08-10 07:22:00,SystemResetWarning,0829.0,4.99,000.00,029.3,026.2,000.0,038.0,030.7,23.2,0000.0,0005.92,0012.08,0005.21
2023-08-10 07:23:00,SystemResetWarning,0828.9,4.99,000.00,029.3,026.6,000.0,038.0,030.8,23.2,0000.0,0005.95,0011.92,0005.22
2023-08-10 07:24:00,SystemResetWarning,0828.9,5.01,000.00,029.3,026.9,000.0,038.0,030.8,23.2,0000.0,0005.97,0012.08,0005.22
2023-08-10 07:25:00,SystemResetWarning,0828.9,5.01,000.00,029.3,027.1,000.0,038.0,030.9,23.2,0000.0,0005.94,0012.02,0005.23
2023-08-10 07:26:00,SystemResetWarning,0828.9,4.99,000.00,029.3,027.4,000.0,038.0,030.9,23.2,0000.0,0005.94,0012.19,0005.24
2023-08-10 07:27:00,SystemResetWarning,0828.8,4.99,000.00,029.3,027.5,000.0,038.0,031.0,23.1,0000.0,0005.96,0012.36,0005.24
2023-08-10 07:28:00,SystemResetWarning,0828.8,5.00,000.00,029.4,027.7,000.0,038.0,031.0,23.1,0000.0,0005.96,0013.05,0005.25
2023-08-10 07:29:00,SystemResetWarning,0828.8,5.00,000.00,029.4,027.8,000.0,038.0,031.0,23.1,0000.0,0005.95,0013.14,0005.25
2023-08-10 07:30:00,SystemResetWarning,0828.7,5.00,000.00,029.4,027.9,000.0,038.0,031.0,23.1,0000.0,0005.95,0013.03,0005.25
2023-08-10 07:31:00,SystemResetWarning,0828.8,5.00,000.00,029.4,028.0,000.0,038.0,031.1,23.1,0000.0,0006.00,0013.17,0005.25
2023-08-10 07:32:00,SystemResetWarning,0828.8,5.00,000.00,029.4,028.1,000.0,038.0,031.1,23.1,0000.0,0006.01,0013.81,0005.24
2023-08-10 07:33:00,SystemResetWarning,0828.8,5.01,000.00,029.5,028.1,000.0,038.1,031.1,23.1,0000.0,0005.97,0014.63,0005.24
2023-08-10 07:34:00,SystemResetWarning,0828.8,5.00,000.00,029.5,028.2,000.0,038.1,031.1,23.0,0000.0,0005.95,0014.50,0005.25
2023-08-10 07:35:00,SystemResetWarning,0828.7,5.00,000.00,029.5,028.2,000.0,038.1,031.1,23.0,0000.0,0005.95,0014.47,0005.26
2023-08-10 07:36:00,SystemResetWarning,0828.7,5.00,000.00,029.5,028.2,000.0,038.1,031.2,22.9,0000.0,0005.98,0015.34,0005.26
2023-08-10 07:37:00,SystemResetWarning,0828.7,5.00,000.00,029.6,028.3,000.0,038.1,031.2,22.9,0000.0,0006.00,0015.56,0005.24
2023-08-10 07:38:00,SystemResetWarning,0828.6,5.00,000.00,029.6,028.3,000.0,038.1,031.2,22.8,0000.0,0005.99,0015.33,0005.23
2023-08-10 07:39:00,SystemResetWarning,0828.7,5.00,000.00,029.6,028.3,000.0,038.2,031.2,22.7,0000.0,0005.97,0014.54,0005.23
2023-08-10 07:40:00,SystemResetWarning,0828.6,5.00,000.00,029.6,028.3,000.0,038.2,031.3,22.8,0000.0,0005.95,0014.05,0005.22
2023-08-10 07:41:00,SystemResetWarning,0828.6,5.00,000.00,029.7,028.4,000.0,038.2,031.3,22.7,0000.1,0005.92,0014.12,0005.22
2023-08-10 07:42:00,SystemResetWarning,0828.6,5.00,000.00,029.7,028.4,000.0,038.2,031.3,22.6,0000.4,0005.90,0014.34,0005.22
2023-08-10 07:43:00,SystemResetWarning,0828.7,4.99,000.00,029.7,028.4,000.0,038.2,031.3,22.5,0000.6,0005.88,0013.36,0005.23
2023-08-10 07:44:00,SystemResetWarning,0828.6,5.00,000.00,029.7,028.4,000.0,038.2,031.3,22.5,0000.6,0005.83,0012.11,0005.24
2023-08-10 07:45:00,SystemResetWarning,0828.7,5.00,000.00,029.7,028.5,000.0,038.3,031.4,22.4,0000.1,0005.84,0012.51,0005.23
2023-08-10 07:46:00,SystemResetWarning,0828.7,5.00,000.00,029.8,028.5,000.0,038.3,031.4,22.5,0000.0,0005.86,0012.65,0005.23
2023-08-10 07:47:00,SystemResetWarning,0828.7,5.00,000.00,029.8,028.5,000.0,038.3,031.4,22.6,0000.0,0005.88,0012.70,0005.24
2023-08-10 07:48:00,SystemResetWarning,0828.7,5.00,000.00,029.8,028.5,000.0,038.3,031.4,22.6,0000.0,0005.86,0012.79,0005.26
2023-08-10 07:49:00,SystemResetWarning,0828.7,5.00,000.00,029.8,028.5,000.0,038.3,031.4,22.8,0000.0,0005.84,0013.22,0005.26
2023-08-10 07:50:00,SystemResetWarning,0828.7,4.98,000.00,029.8,027.5,000.0,038.3,031.3,22.9,0000.0,0005.86,0013.34,0005.26
2023-08-10 07:51:00,SystemResetWarning,0828.7,5.00,000.00,029.7,025.7,000.0,038.1,031.0,22.8,0000.1,0005.87,0013.42,0005.26
2023-08-10 07:52:00,SystemResetWarning,0828.7,5.01,000.00,029.6,025.2,000.0,038.1,030.7,22.6,0000.3,0005.88,0013.33,0005.26
2023-08-10 07:53:00,SystemResetWarning,0828.7,5.01,000.00,029.5,025.4,000.0,038.1,030.5,22.8,0000.5,0005.86,0012.55,0005.26
2023-08-10 07:54:00,SystemResetWarning,0828.7,4.99,000.00,029.4,025.8,000.0,038.1,030.6,22.8,0000.1,0005.87,0013.18,0005.26
2023-08-10 07:55:00,SystemResetWarning,0828.7,4.99,000.00,029.4,026.2,000.0,038.1,030.8,22.8,0000.0,0005.92,0013.38,0005.26
2023-08-10 07:56:00,SystemResetWarning,0828.7,5.00,000.00,029.4,026.6,000.0,038.1,030.8,22.7,0000.5,0005.97,0013.16,0005.27
2023-08-10 07:57:00,SystemResetWarning,0828.6,5.00,000.00,029.4,026.9,000.0,038.1,030.9,22.6,0001.8,0005.95,0013.22,0005.27
2023-08-10 07:58:00,SystemResetWarning,0828.6,5.01,000.00,029.4,027.2,000.0,038.1,030.9,22.6,0001.7,0005.98,0013.69,0005.28
2023-08-10 07:59:00,SystemResetWarning,0828.6,5.01,000.00,029.4,027.4,000.0,038.1,030.9,22.5,0001.2,0005.96,0012.95,0005.27
